EN

Hourly Weather Bolshoe Kolesovo

Today, 26 October, Monday

Time Temperature Precipitation Wind Pressure Humidity
00:00 -4°C° 0.7 mm 7 mps 728 mmHg 78%
01:00 -4°C° 0.7 mm 7 mps 728 mmHg 76%
02:00 -4°C° 0.1 mm 7 mps 729 mmHg 75%
03:00 -6°C° 0.1 mm 7 mps 729 mmHg 75%
04:00 -6°C° 0.1 mm 7 mps 730 mmHg 74%
05:00 -5°C° 0 mm 6 mps 730 mmHg 75%
06:00 -6°C° 0 mm 6 mps 730 mmHg 75%
07:00 -6°C° 0 mm 5 mps 731 mmHg 75%
08:00 -5°C° 0 mm 5 mps 731 mmHg 73%
09:00 -5°C° 0 mm 5 mps 731 mmHg 70%
10:00 -4°C° 0 mm 5 mps 731 mmHg 67%
11:00 -4°C° 0 mm 5 mps 730 mmHg 65%
12:00 -3°C° 0 mm 4 mps 730 mmHg 63%
13:00 -2°C° 0 mm 4 mps 729 mmHg 60%
14:00 -2°C° 0 mm 3 mps 729 mmHg 63%
15:00 -3°C° 0 mm 2 mps 729 mmHg 65%
16:00 -3°C° 0 mm 2 mps 729 mmHg 67%
17:00 -4°C° 0 mm 2 mps 728 mmHg 69%
18:00 -5°C° 0 mm 2 mps 728 mmHg 71%
19:00 -6°C° 0 mm 2 mps 728 mmHg 73%
20:00 -6°C° 0 mm 2 mps 728 mmHg 72%
21:00 -6°C° 0 mm 2 mps 728 mmHg 71%
22:00 -6°C° 0 mm 2 mps 728 mmHg 70%
23:00 -6°C° 0 mm 2 mps 728 mmHg 70%

Tomorrow, 27 October, Tuesday

Time Temperature Precipitation Wind Pressure Humidity
00:00 -6°C° 0 mm 2 mps 727 mmHg 69%
01:00 -6°C° 0 mm 2 mps 727 mmHg 69%
02:00 -7°C° 0 mm 2 mps 727 mmHg 69%
03:00 -7°C° 0 mm 2 mps 726 mmHg 69%
04:00 -7°C° 0 mm 2 mps 726 mmHg 70%
05:00 -7°C° 0 mm 2 mps 726 mmHg 69%
06:00 -7°C° 0 mm 2 mps 726 mmHg 69%
07:00 -7°C° 0 mm 2 mps 726 mmHg 69%
08:00 -5°C° 0 mm 2 mps 726 mmHg 66%
09:00 -3°C° 0 mm 2 mps 726 mmHg 62%
10:00 -2°C° 0 mm 2 mps 726 mmHg 59%
11:00 -1°C° 0 mm 2 mps 726 mmHg 58%
12:00 +1°C° 0 mm 2 mps 726 mmHg 57%
13:00 +2°C° 0 mm 2 mps 725 mmHg 55%
14:00 +1°C° 0 mm 2 mps 725 mmHg 59%
15:00 +1°C° 0 mm 2 mps 725 mmHg 62%
16:00 -1°C° 0 mm 2 mps 725 mmHg 66%
17:00 -2°C° 0 mm 2 mps 725 mmHg 68%
18:00 -3°C° 0 mm 2 mps 725 mmHg 69%
19:00 -5°C° 0 mm 3 mps 725 mmHg 71%
20:00 -4°C° 0 mm 2 mps 725 mmHg 71%
21:00 -4°C° 0 mm 2 mps 725 mmHg 70%
22:00 -4°C° 0 mm 2 mps 725 mmHg 70%
23:00 -5°C° 0 mm 3 mps 725 mmHg 71%

Day after tomorrow, 28 October, Wednesday

Time Temperature Precipitation Wind Pressure Humidity
00:00 -5°C° 0 mm 3 mps 725 mmHg 71%
01:00 -5°C° 0 mm 3 mps 725 mmHg 71%
02:00 -5°C° 0 mm 3 mps 724 mmHg 71%
03:00 -5°C° 0 mm 3 mps 724 mmHg 72%
04:00 -5°C° 0 mm 3 mps 724 mmHg 72%
05:00 -5°C° 0 mm 3 mps 724 mmHg 72%
06:00 -5°C° 0 mm 3 mps 724 mmHg 72%
07:00 -5°C° 0 mm 3 mps 723 mmHg 72%
08:00 -4°C° 0 mm 3 mps 723 mmHg 69%
09:00 -1°C° 0 mm 3 mps 723 mmHg 65%
10:00 0°C° 0 mm 3 mps 723 mmHg 62%
11:00 +1°C° 0 mm 3 mps 722 mmHg 61%
12:00 +2°C° 0 mm 3 mps 722 mmHg 60%
13:00 +3°C° 0 mm 3 mps 721 mmHg 59%
14:00 +2°C° 0 mm 3 mps 721 mmHg 62%
15:00 +1°C° 0 mm 3 mps 721 mmHg 65%
16:00 +1°C° 0 mm 3 mps 720 mmHg 68%
17:00 0°C° 0 mm 3 mps 721 mmHg 69%
18:00 -1°C° 0 mm 3 mps 721 mmHg 69%
19:00 -2°C° 0 mm 3 mps 721 mmHg 70%
20:00 -2°C° 0 mm 3 mps 720 mmHg 71%
21:00 -2°C° 0 mm 3 mps 720 mmHg 71%
22:00 -2°C° 0 mm 3 mps 720 mmHg 71%
23:00 -2°C° 0 mm 3 mps 720 mmHg 71%

29 October, Thursday

Time Temperature Precipitation Wind Pressure Humidity
00:00 -2°C° 0 mm 3 mps 720 mmHg 72%
01:00 -2°C° 0 mm 3 mps 719 mmHg 72%
02:00 -2°C° 0 mm 2 mps 719 mmHg 72%
03:00 -2°C° 0 mm 2 mps 720 mmHg 72%
04:00 -2°C° 0 mm 2 mps 720 mmHg 72%
05:00 -2°C° 0 mm 2 mps 720 mmHg 73%
06:00 0°C° 0 mm 1 mps 720 mmHg 73%
07:00 -1°C° 0 mm 1 mps 721 mmHg 73%
08:00 +1°C° 0 mm 1 mps 721 mmHg 71%
09:00 +2°C° 0 mm 1 mps 721 mmHg 69%
10:00 +3°C° 0 mm 1 mps 721 mmHg 67%
11:00 +3°C° 0 mm 2 mps 721 mmHg 69%
12:00 +3°C° 0 mm 2 mps 721 mmHg 70%
13:00 +4°C° 0 mm 2 mps 721 mmHg 72%
14:00 +3°C° 0 mm 2 mps 722 mmHg 76%
15:00 +3°C° 0 mm 2 mps 722 mmHg 79%
16:00 +2°C° 0 mm 2 mps 722 mmHg 83%
17:00 +2°C° 0 mm 2 mps 722 mmHg 85%
18:00 +2°C° 0 mm 2 mps 723 mmHg 87%
19:00 +1°C° 0 mm 2 mps 723 mmHg 89%
20:00 +1°C° 0 mm 2 mps 723 mmHg 89%
21:00 +1°C° 0 mm 2 mps 724 mmHg 89%
22:00 +1°C° 0 mm 2 mps 724 mmHg 89%
23:00 +1°C° 0 mm 2 mps 724 mmHg 90%

30 October, Friday

Time Temperature Precipitation Wind Pressure Humidity
00:00 +1°C° 0 mm 2 mps 724 mmHg 91%
01:00 +1°C° 0 mm 2 mps 724 mmHg 92%
02:00 +1°C° 0 mm 2 mps 724 mmHg 92%
03:00 +2°C° 0 mm 2 mps 724 mmHg 92%
04:00 +2°C° 0 mm 2 mps 724 mmHg 92%
05:00 +3°C° 0 mm 1 mps 724 mmHg 92%
06:00 +3°C° 0 mm 1 mps 725 mmHg 91%
07:00 +3°C° 0 mm 1 mps 725 mmHg 91%
08:00 +3°C° 0 mm 1 mps 725 mmHg 88%
09:00 +4°C° 0 mm 1 mps 725 mmHg 85%
10:00 +5°C° 0 mm 1 mps 725 mmHg 82%
11:00 +5°C° 0 mm 1 mps 725 mmHg 81%
12:00 +5°C° 0 mm 1 mps 725 mmHg 79%
13:00 +6°C° 0 mm 1 mps 724 mmHg 78%
14:00 +4°C° 0 mm 0 mps 724 mmHg 80%
15:00 +3°C° 0 mm 0 mps 724 mmHg 82%
16:00 +3°C° 0 mm 0 mps 724 mmHg 85%
17:00 +2°C° 0 mm 0 mps 724 mmHg 85%
18:00 +3°C° 0 mm 1 mps 724 mmHg 86%
19:00 +2°C° 0 mm 1 mps 724 mmHg 87%
20:00 +2°C° 0 mm 1 mps 724 mmHg 87%
21:00 +2°C° 0 mm 1 mps 724 mmHg 87%
22:00 +3°C° 0 mm 1 mps 724 mmHg 87%
23:00 +1°C° 0.4 mm 2 mps 724 mmHg 91%

31 October, Saturday

Time Temperature Precipitation Wind Pressure Humidity
00:00 0°C° 0.4 mm 3 mps 724 mmHg 94%
01:00 -1°C° 0.4 mm 4 mps 723 mmHg 97%
02:00 -1°C° 0.9 mm 4 mps 723 mmHg 96%
03:00 -1°C° 0.9 mm 4 mps 724 mmHg 94%
04:00 -1°C° 0.9 mm 4 mps 724 mmHg 93%
05:00 -1°C° 0.3 mm 4 mps 724 mmHg 88%
06:00 -1°C° 0.3 mm 4 mps 725 mmHg 83%
07:00 0°C° 0.3 mm 3 mps 725 mmHg 79%
08:00 0°C° 0 mm 4 mps 725 mmHg 76%
09:00 0°C° 0 mm 4 mps 725 mmHg 73%
10:00 +1°C° 0 mm 4 mps 726 mmHg 70%
11:00 +1°C° 0 mm 4 mps 726 mmHg 68%
12:00 +1°C° 0 mm 4 mps 726 mmHg 66%
13:00 +1°C° 0 mm 4 mps 726 mmHg 65%
Show more